Thurmont, MD

2:24 AM EDT on May 26, 2018 (GMT -0400)
Thurmont

Weather History for KRSP - March, 2014

Change the Weather History Date:

Tuesday, March 25, 2014

  Actual Average (WUND) Record (WUND)
Temperature  
Mean Temperature 26 °F -  
Max Temperature 27 °F - - (-1)
Min Temperature 24 °F - - (-1)
Degree Days  
Heating Degree Days 40    
Moisture  
Dew Point 18 °F    
Average Humidity 77    
Maximum Humidity 93    
Minimum Humidity 37    
Precipitation  
Precipitation 0.30 in - - ()
Sea Level Pressure  
Sea Level Pressure 29.95 in    
Wind  
Wind Speed 5 mph (SSE)    
Max Wind Speed 8 mph    
Max Gust Speed -    
Visibility 3 miles    
Events Fog , Snow    
Averages and records for this station are not official NWS values.
T = Trace of Precipitation, MM = Missing Value Source: NWS Daily Summary

Daily Weather History Graph

Daily Weather History Graph

Search for Another Location

Airport or City:

Astronomy

Mar. 25, 2014 Rise Set
Actual Time 7:05 AM EDT 7:26 PM EDT
Civil Twilight 6:38 AM EDT 7:53 PM EDT
Nautical Twilight 6:06 AM EDT 8:25 PM EDT
Astronomical Twilight 5:34 AM EDT 8:58 PM EDT
Moon 3:24 AM EDT (3/25) 1:56 PM EDT (3/25)
Length of Visible Light 13h 15m
Length of Day
12h 21m
Waning Crescent, 32% of the Moon is Illuminated
Mar 25
Waning Crescent
Mar 30
New
Apr 7
First Quarter
Apr 15
Full
Apr 22
Last Quarter

Hourly Weather History & Observations

Time (EDT) Temp. Windchill Dew Point Humidity Pressure Visibility Wind Dir Wind Speed Gust Speed Precip Events Conditions
12:54 AM 24.1 °F 17.0 °F 1.0 °F 37% 30.14 in 10.0 mi SE 5.8 mph - N/A   Clear
1:54 AM 24.1 °F 17.0 °F 1.0 °F 37% 30.12 in 10.0 mi SE 5.8 mph - N/A   Clear
2:54 AM 24.1 °F 17.0 °F 1.0 °F 37% 30.10 in 10.0 mi SE 5.8 mph - N/A   Clear
3:54 AM 24.1 °F 16.0 °F 1.9 °F 38% 30.08 in 10.0 mi South 6.9 mph - N/A   Scattered Clouds
4:54 AM 24.1 °F 17.0 °F 1.9 °F 38% 30.06 in 10.0 mi South 5.8 mph - N/A   Overcast
5:54 AM 25.0 °F 19.3 °F 6.1 °F 45% 30.04 in 10.0 mi SSW 4.6 mph - N/A   Overcast
6:54 AM 26.1 °F 18.4 °F 14.0 °F 60% 30.04 in 10.0 mi SW 6.9 mph - N/A   Overcast
7:20 AM 26.6 °F 20.0 °F 14.0 °F 59% 29.97 in 4.0 mi SW 5.8 mph - N/A   Haze
7:54 AM 24.1 °F 18.2 °F 18.0 °F 77% 30.04 in 1.2 mi Variable 4.6 mph - 0.00 in Snow Light Snow
8:07 AM 24.8 °F 16.9 °F 19.4 °F 80% 29.96 in 2.5 mi SW 6.9 mph - 0.00 in Snow Light Snow
8:29 AM 24.8 °F 16.9 °F 19.4 °F 80% 29.95 in 3.0 mi SW 6.9 mph - 0.00 in   Haze
8:54 AM 25.0 °F 20.7 °F 19.9 °F 81% 30.03 in 2.5 mi South 3.5 mph - 0.00 in Snow Light Snow
9:17 AM 24.8 °F 20.5 °F 21.2 °F 86% 29.95 in 1.2 mi SSW 3.5 mph - 0.00 in Snow Light Snow
9:29 AM 24.8 °F - 21.2 °F 86% 29.95 in 0.5 mi Calm Calm - 0.00 in Fog , Snow Light Snow
9:54 AM 25.0 °F 19.3 °F 21.0 °F 85% 30.04 in 0.2 mi Variable 4.6 mph - 0.02 in Fog , Snow Snow
10:30 AM 24.8 °F 19.1 °F 21.2 °F 86% 29.95 in 0.2 mi Variable 4.6 mph - 0.03 in Fog , Snow Snow
10:54 AM 24.1 °F 17.0 °F 21.0 °F 88% 30.04 in 0.5 mi South 5.8 mph - 0.05 in Fog , Snow Light Snow
11:54 AM 25.0 °F 16.3 °F 21.9 °F 88% 30.01 in 0.5 mi SSE 8.1 mph - 0.05 in Fog , Snow Light Snow
12:04 PM 24.8 °F 19.1 °F 21.2 °F 86% 29.92 in 0.2 mi Variable 4.6 mph - 0.01 in Fog , Snow Light Snow
12:54 PM 26.1 °F 18.4 °F 23.0 °F 88% 29.99 in 0.5 mi Variable 6.9 mph - 0.06 in Fog , Snow Light Snow
1:54 PM 26.1 °F 21.9 °F 21.9 °F 84% 29.96 in 0.5 mi Variable 3.5 mph - 0.06 in Fog , Snow Light Snow
2:58 PM 26.6 °F 20.0 °F 23.0 °F 86% 29.83 in 1.0 mi ESE 5.8 mph - 0.00 in Snow Light Snow
3:08 PM 26.6 °F 19.1 °F 21.2 °F 80% 29.83 in 0.8 mi SE 6.9 mph - 0.00 in Snow Light Snow
3:54 PM 27.0 °F 20.5 °F 23.0 °F 85% 29.90 in 0.5 mi ESE 5.8 mph - 0.03 in Fog , Snow Light Snow
4:30 PM 26.6 °F 22.6 °F 24.8 °F 93% 29.80 in 1.0 mi Variable 3.5 mph - 0.01 in Snow Light Snow
4:48 PM 26.6 °F 20.0 °F 24.8 °F 93% 29.80 in 1.0 mi East 5.8 mph - 0.02 in Snow Light Snow
4:54 PM 27.0 °F 21.6 °F 24.1 °F 89% 29.88 in 1.5 mi Variable 4.6 mph - 0.02 in Snow Light Snow
6:37 PM 26.6 °F 21.2 °F 23.0 °F 86% 29.80 in 1.5 mi Variable 4.6 mph - 0.00 in Snow Light Snow
6:54 PM 27.0 °F 20.5 °F 23.0 °F 85% 29.89 in 1.2 mi Variable 5.8 mph - 0.01 in Snow Light Snow
7:04 PM 26.6 °F 22.6 °F 24.8 °F 93% 29.81 in 1.0 mi NNE 3.5 mph - 0.00 in Snow Light Snow
8:54 PM 26.1 °F 19.4 °F 23.0 °F 88% 29.90 in 6.0 mi North 5.8 mph - N/A   Overcast
9:54 PM 25.0 °F - 23.0 °F 92% 29.91 in 3.0 mi Calm Calm - N/A   Overcast
10:08 PM 24.8 °F - 23.0 °F 93% 29.83 in 2.5 mi Calm Calm - N/A   Overcast
10:28 PM 24.8 °F 20.5 °F 23.0 °F 93% 29.83 in 1.2 mi Variable 3.5 mph - N/A   Overcast
11:25 PM 24.8 °F - 21.2 °F 86% 29.83 in 1.8 mi Calm Calm - N/A   Overcast
11:54 PM 24.1 °F 19.7 °F 21.9 °F 91% 29.91 in 1.5 mi NNE 3.5 mph - N/A   Overcast